Jamestown, ND

5:12 AM CDT on August 20, 2017 (GMT -0500)
Jamestown Municipal

Weather History for KJMS - December, 2013

Change the Weather History Date:

Wednesday, December 4, 2013

  Actual Average Record
Temperature  
Mean Temperature 9 °F 18 °F  
Max Temperature 15 °F 27 °F 59 °F (1965)
Min Temperature 2 °F 9 °F -20 °F (1964)
Degree Days  
Heating Degree Days 56 47  
Month to date heating degree days 187 186  
Since 1 July heating degree days 2197 2270  
Cooling Degree Days 0 0  
Month to date cooling degree days 0 0  
Year to date cooling degree days 521 446  
Moisture  
Dew Point 5 °F    
Average Humidity 88    
Maximum Humidity 96    
Minimum Humidity 80    
Precipitation  
Precipitation 0.01 in 0.02 in 0.20 in (1930)
Month to date precipitation 0.16 0.06  
Year to date precipitation 16.03 18.43  
Sea Level Pressure  
Sea Level Pressure 29.85 in    
Wind  
Wind Speed 24 mph (NNW)    
Max Wind Speed 33 mph    
Max Gust Speed 41 mph    
Visibility 1 miles    
Events Fog , Snow    
T = Trace of Precipitation, MM = Missing Value Source: NWS Daily Summary

Daily Weather History Graph

Daily Weather History Graph

Search for Another Location

Airport or City:

Trip Planner

Search our weather history database for the weather conditions in past years. The results will help you decide how hot, cold, wet, or windy it might be!

Date:

Astronomy

Dec. 04, 2013 Rise Set
Actual Time 8:03 AM CST 4:46 PM CST
Civil Twilight 7:28 AM CST 5:21 PM CST
Nautical Twilight 6:50 AM CST 5:59 PM CST
Astronomical Twilight 6:13 AM CST 6:36 PM CST
Moon 9:30 AM CST (12/4) 7:02 PM CST (12/4)
Length of Visible Light 9h 53m
Length of Day
8h 43m
Waxing Crescent, 4% of the Moon is Illuminated
Dec 4
Waxing Crescent
Dec 9
First Quarter
Dec 17
Full
Dec 25
Last Quarter
Jan 1
New

Hourly Weather History & Observations

Time (CST) Temp. Windchill Dew Point Humidity Pressure Visibility Wind Dir Wind Speed Gust Speed Precip Events Conditions
12:10 AM 15.1 °F -1.6 °F 12.9 °F 91% 29.86 in 1.5 mi North 18.4 mph - 0.00 in Snow Light Snow
12:56 AM 15.1 °F -1.6 °F 12.0 °F 88% 29.94 in 1.5 mi North 18.4 mph - 0.00 in Snow Light Snow
1:56 AM 14.0 °F -3.4 °F 12.0 °F 92% 29.95 in 1.2 mi North 19.6 mph - 0.00 in Snow Light Snow
2:17 AM 12.9 °F -4.4 °F 10.9 °F 92% 29.86 in 1.0 mi NNW 18.4 mph - 0.00 in Snow Light Snow
2:56 AM 12.9 °F -4.9 °F 10.9 °F 92% 29.96 in 1.2 mi NNW 19.6 mph - 0.00 in Snow Light Snow
3:20 AM 12.9 °F -5.3 °F 10.0 °F 88% 29.87 in 1.0 mi North 20.7 mph - 0.00 in Snow Light Snow
3:29 AM 12.9 °F -4.4 °F 10.0 °F 88% 29.86 in 0.8 mi North 18.4 mph - 0.00 in Snow Light Snow
3:56 AM 12.0 °F -6.0 °F 10.0 °F 92% 29.94 in 1.0 mi North 19.6 mph - 0.00 in Snow Light Snow
4:13 AM 12.0 °F -6.0 °F 9.0 °F 88% 29.84 in 1.5 mi North 19.6 mph - 0.00 in Snow Light Snow
4:56 AM 10.9 °F -8.3 °F 9.0 °F 92% 29.92 in 1.5 mi NNW 21.9 mph - 0.00 in Snow Light Snow
5:56 AM 10.9 °F -7.9 °F 9.0 °F 92% 29.94 in 1.2 mi NNW 20.7 mph - 0.00 in Snow Light Snow
6:13 AM 10.9 °F -7.9 °F 8.1 °F 88% 29.81 in 1.0 mi North 20.7 mph - 0.01 in Snow Light Snow
6:56 AM 10.9 °F -8.8 °F 8.1 °F 88% 29.91 in 0.8 mi North 23.0 mph - 0.01 in Snow Light Snow
7:03 AM 10.9 °F -8.3 °F 8.1 °F 88% 29.81 in 1.0 mi North 21.9 mph - 0.00 in Snow Light Snow
7:56 AM 10.9 °F -7.9 °F 8.1 °F 88% 29.91 in 1.5 mi North 20.7 mph - 0.00 in Snow Light Snow
8:20 AM 10.9 °F -7.5 °F 8.1 °F 88% 29.82 in 2.0 mi North 19.6 mph - 0.00 in Snow Light Snow
8:27 AM 10.9 °F -7.9 °F 8.1 °F 88% 29.82 in 1.5 mi North 20.7 mph - 0.00 in Snow Light Snow
8:41 AM 10.9 °F -8.3 °F 8.1 °F 88% 29.83 in 0.5 mi North 21.9 mph 28.8 mph 0.00 in Fog , Snow Snow
8:56 AM 10.9 °F -7.9 °F 8.1 °F 88% 29.93 in 0.5 mi NNW 20.7 mph - 0.00 in Fog , Snow Snow
9:23 AM 10.0 °F -10.0 °F 7.0 °F 87% 29.82 in 0.8 mi NNW 23.0 mph - 0.00 in Snow Light Snow
9:47 AM 10.0 °F -9.5 °F 7.0 °F 87% 29.82 in 1.0 mi NNW 21.9 mph - 0.00 in Snow Light Snow
9:56 AM 9.0 °F -11.4 °F 6.1 °F 88% 29.91 in 1.2 mi NNW 23.0 mph - 0.00 in Snow Light Snow
10:40 AM 9.0 °F -11.4 °F 6.1 °F 88% 29.82 in 0.8 mi NNW 23.0 mph - 0.00 in Snow Light Snow
10:56 AM 9.0 °F -11.0 °F 6.1 °F 88% 29.91 in 0.8 mi NNW 21.9 mph - 0.00 in Snow Light Snow
11:17 AM 9.0 °F -12.6 °F 5.0 °F 84% 29.80 in 0.5 mi NNW 26.5 mph 33.4 mph 0.00 in Fog , Snow Snow
11:56 AM 8.1 °F -13.4 °F 3.9 °F 83% 29.91 in 0.8 mi NNW 25.3 mph 32.2 mph 0.00 in Snow Light Snow
12:05 PM 8.1 °F -12.6 °F 3.9 °F 83% 29.82 in 0.8 mi NNW 23.0 mph - 0.00 in Snow Light Snow
12:32 PM 7.0 °F -14.5 °F 3.9 °F 87% 29.78 in 0.5 mi NNW 24.2 mph - 0.00 in Fog , Snow Snow
12:56 PM 7.0 °F -15.6 °F 3.9 °F 87% 29.88 in 0.2 mi NNW 27.6 mph - 0.00 in Fog , Snow Snow
1:04 PM 7.0 °F -14.9 °F 3.9 °F 87% 29.78 in 0.5 mi NNW 25.3 mph 33.4 mph 0.00 in Fog , Snow Light Snow
1:24 PM 7.0 °F -15.3 °F 3.9 °F 87% 29.78 in 0.8 mi NNW 26.5 mph - 0.00 in Snow Light Snow
1:56 PM 7.0 °F -14.5 °F 3.0 °F 84% 29.88 in 1.0 mi NNW 24.2 mph 32.2 mph 0.00 in Snow Light Snow
2:11 PM 7.0 °F -15.3 °F 3.0 °F 84% 29.77 in 0.8 mi NNW 26.5 mph 34.5 mph 0.00 in Snow Light Snow
2:30 PM 7.0 °F -14.5 °F 3.0 °F 84% 29.77 in 0.5 mi NNW 24.2 mph 32.2 mph 0.00 in Fog , Snow Light Snow
2:56 PM 6.1 °F -16.8 °F 3.0 °F 87% 29.88 in 0.5 mi NNW 27.6 mph 34.5 mph 0.00 in Fog , Snow Light Snow
3:20 PM 6.1 °F -14.8 °F 3.0 °F 87% 29.78 in 0.8 mi NNW 21.9 mph 32.2 mph 0.00 in Snow Light Snow
3:54 PM 6.8 °F -16.2 °F 3.2 °F 85% 29.79 in 0.2 mi NNW 28.8 mph 36.8 mph 0.00 in Fog , Snow Snow
3:56 PM 6.1 °F -17.2 °F 3.0 °F 87% 29.89 in 0.2 mi NNW 28.8 mph 39.1 mph 0.00 in Fog , Snow Snow
4:15 PM 6.1 °F -15.2 °F 3.0 °F 87% 29.79 in 0.5 mi NW 23.0 mph 33.4 mph 0.00 in Fog , Snow Snow
4:32 PM 6.1 °F -16.1 °F 3.0 °F 87% 29.79 in 0.2 mi NNW 25.3 mph 38.0 mph 0.00 in Fog , Snow Snow
4:40 PM 6.1 °F -17.9 °F 3.0 °F 87% 29.79 in 0.5 mi NW 31.1 mph 41.4 mph 0.00 in Fog , Snow Light Snow
4:52 PM 6.8 °F -16.2 °F 3.2 °F 85% 29.79 in 0.2 mi NNW 28.8 mph 39.1 mph 0.00 in Fog , Snow Light Snow
4:56 PM 6.1 °F -17.6 °F 3.0 °F 87% 29.90 in 0.2 mi NNW 29.9 mph 38.0 mph 0.00 in Fog , Snow Light Snow
5:05 PM 6.1 °F -18.2 °F 3.0 °F 87% 29.79 in 0.5 mi NNW 32.2 mph 38.0 mph 0.00 in Fog , Snow Light Snow
5:48 PM 6.1 °F -16.5 °F 1.9 °F 83% 29.80 in 1.2 mi NNW 26.5 mph 36.8 mph 0.00 in Snow Light Snow
5:56 PM 6.1 °F -15.7 °F 3.0 °F 87% 29.91 in 1.5 mi NNW 24.2 mph 34.5 mph 0.00 in Snow Light Snow
6:56 PM 6.1 °F -16.5 °F 1.9 °F 83% 29.91 in 1.8 mi NNW 26.5 mph 34.5 mph 0.00 in   Overcast
7:12 PM 6.1 °F -16.8 °F 1.9 °F 83% 29.81 in 2.0 mi NNW 27.6 mph 36.8 mph 0.00 in   Overcast
7:26 PM 6.1 °F -13.3 °F 1.9 °F 83% 29.82 in 1.8 mi NW 18.4 mph 29.9 mph 0.00 in Snow Light Snow
7:41 PM 6.1 °F -14.3 °F 3.0 °F 87% 29.82 in 2.5 mi NW 20.7 mph - 0.00 in   Overcast
7:47 PM 6.1 °F -14.3 °F 3.0 °F 87% 29.82 in 4.0 mi NW 20.7 mph 28.8 mph 0.00 in   Overcast
7:56 PM 6.1 °F -15.2 °F 3.0 °F 87% 29.93 in 2.5 mi NW 23.0 mph - 0.00 in Snow Light Snow
8:37 PM 6.1 °F -15.2 °F 3.0 °F 87% 29.82 in 1.8 mi NW 23.0 mph 31.1 mph 0.00 in Snow Light Snow
8:41 PM 6.1 °F -16.1 °F 3.0 °F 87% 29.82 in 2.0 mi NW 25.3 mph 33.4 mph 0.00 in Snow Light Snow
8:56 PM 6.1 °F -16.8 °F 3.0 °F 87% 29.93 in 1.5 mi NW 27.6 mph 36.8 mph 0.00 in Snow Light Snow
9:08 PM 6.1 °F -17.2 °F 3.0 °F 87% 29.82 in 1.2 mi NW 28.8 mph 36.8 mph 0.00 in Snow Light Snow
9:30 PM 6.1 °F -17.6 °F 3.0 °F 87% 29.82 in 1.0 mi NW 29.9 mph 36.8 mph 0.00 in Snow Light Snow
9:56 PM 6.1 °F -16.8 °F 1.9 °F 83% 29.94 in 1.2 mi NW 27.6 mph 38.0 mph 0.00 in   Overcast
10:15 PM 5.0 °F -19.0 °F 1.9 °F 87% 29.83 in 1.0 mi NW 29.9 mph 35.7 mph 0.00 in   Overcast
10:53 PM 3.2 °F -21.1 °F 1.4 °F 92% 29.84 in 1.2 mi NW 28.8 mph 38.0 mph 0.00 in Snow Blowing Snow
10:56 PM 3.9 °F -20.1 °F 1.0 °F 88% 29.95 in 1.0 mi NW 28.8 mph 38.0 mph 0.00 in Snow Blowing Snow
11:03 PM 3.9 °F -20.1 °F 1.0 °F 88% 29.84 in 1.2 mi NW 28.8 mph 36.8 mph 0.00 in Snow Blowing Snow
11:35 PM 3.0 °F -21.0 °F -0.0 °F 87% 29.85 in 1.8 mi NW 27.6 mph 41.4 mph 0.00 in Snow Blowing Snow
11:56 PM 1.9 °F -23.9 °F -2.0 °F 83% 29.97 in 1.8 mi NW 32.2 mph 40.3 mph 0.00 in Snow Blowing Snow